Theta_e
323 324 323 322 321 321 320 320 318 318 319 319 318 317 319 319 318 319 318 318 317 317 317 316 314 315 316 316 316 316 316 316 316 316 316 317 317 317
324 323 322 322 321 321 320 319 318 317 319 318 316 316 316 318 318 317 319 319 318 318 317 317 315 316 316 317 316 316 316 316 316 316 317 317 317 317
322 323 322 321 320 320 320 319 317 316 316 317 317 318 318 318 317 318 318 319 318 318 317 316 318 317 317 316 316 316 316 316 316 316 317 317 317 315
321 321 320 320 320 320 319 320 316 318 317 317 315 317 317 317 317 318 317 317 316 318 317 316 315 316 317 316 316 315 315 315 315 315 315 315 314 314
321 319 319 320 320 319 319 319 317 318 317 316 316 316 316 316 316 317 314 315 316 315 315 315 315 315 315 315 315 315 315 315 315 314 312 312 311 307
322 322 320 319 319 319 319 319 317 316 316 315 315 316 316 317 316 316 316 315 314 313 313 315 315 315 315 316 316 316 315 314 314 312 311 308 306 301
321 320 320 320 319 319 319 318 317 317 316 317 316 316 316 317 316 314 314 314 314 313 314 315 315 315 314 315 314 313 313 309 308 302 300 299 298 298
319 319 319 319 319 319 319 319 319 319 317 316 315 315 315 316 315 315 314 314 314 314 314 314 313 313 313 312 311 306 302 299 296 296 296 296 296 295
318 318 317 317 318 318 318 318 318 318 318 316 315 315 315 314 314 315 314 313 314 315 315 312 311 309 308 303 299 297 295 295 295 295 294 294 292 290
316 317 317 316 316 316 317 317 317 316 315 315 315 315 313 313 314 314 314 314 314 313 313 309 307 304 299 296 293 293 293 293 293 293 292 290 286 285
316 316 316 315 315 315 315 315 314 314 314 314 313 312 311 314 314 314 313 313 312 310 309 305 301 297 294 292 290 291 291 291 290 291 288 284 282 281
316 316 316 316 315 315 314 314 314 313 313 313 313 313 313 313 313 312 312 310 308 306 304 301 298 295 291 289 289 289 289 290 287 284 282 281 281 281
315 315 315 315 315 315 315 315 314 314 313 312 312 311 311 310 309 308 306 305 304 303 301 299 296 293 291 289 287 288 288 282 281 281 280 280 281 281
315 316 316 316 316 314 314 313 314 313 312 310 307 305 304 303 302 301 301 300 300 299 297 294 294 292 291 289 287 282 280 280 280 280 280 280 281 280
314 314 314 315 314 313 312 312 311 308 306 304 302 300 299 298 298 297 296 296 295 294 292 291 291 290 289 286 282 280 280 280 280 280 279 280 280 281
308 306 306 308 308 308 305 302 301 299 298 298 297 296 294 293 293 292 292 291 291 289 285 282 281 281 281 280 280 280 280 279 279 279 279 280 280 281
301 301 300 298 300 297 295 295 295 294 294 294 293 292 291 291 289 285 284 283 283 281 280 280 279 280 279 279 280 279 279 278 278 278 279 280 280 280
297 297 294 292 293 291 291 291 291 291 290 290 290 289 287 285 283 281 281 281 281 280 280 279 279 279 279 280 280 280 278 278 278 278 278 280 280 280
294 291 290 289 289 288 288 289 289 288 287 286 285 283 281 281 280 280 280 279 279 279 279 278 278 280 280 281 280 279 278 278 278 278 278 280 281 280
289 288 287 287 287 287 287 287 285 283 282 281 280 280 280 280 279 279 279 278 278 278 278 278 278 277 277 277 277 277 277 278 278 278 278 280 280 281
286 286 285 285 285 284 283 281 281 280 280 280 279 279 279 279 279 278 278 278 278 277 278 277 277 276 276 277 277 277 277 277 277 277 278 279 280 281
284 283 282 281 280 280 279 279 279 279 279 279 278 278 278 277 277 277 277 277 277 277 277 276 276 276 276 276 276 276 276 276 277 277 277 277 278 279
280 280 279 279 278 278 278 278 278 278 277 277 277 277 277 277 277 276 276 276 276 276 275 275 275 276 276 276 276 276 275 276 277 277 277 277 279 280
Wind_Speed
23 30 30 42 37 40 44 48 39 23 32 28 22 29 23 22 25 23 22 20 21 20 20 20 21 23 25 27 28 28 29 29 28 29 28 28 28 29
26 26 32 36 35 37 37 36 37 33 25 26 23 27 30 29 26 25 23 21 20 21 23 23 24 23 27 29 29 28 28 27 26 27 28 29 30 30
25 25 27 28 34 37 32 33 38 35 26 26 28 27 24 27 27 28 26 24 26 24 23 25 21 24 25 23 23 23 24 26 26 26 28 29 29 31
26 25 27 26 36 39 35 35 34 31 26 23 29 25 25 25 25 25 23 23 19 16 13 13 18 27 21 22 22 23 26 27 28 31 34 39 41 39
25 24 26 29 33 32 38 34 35 29 22 20 24 29 27 27 24 23 23 23 20 19 21 21 24 26 32 31 28 30 30 31 30 27 27 30 30 30
23 25 27 33 33 35 37 39 40 34 32 29 18 24 28 26 24 26 23 18 21 21 26 27 27 21 25 28 30 33 34 31 28 28 30 28 26 20
20 23 23 28 30 38 40 42 40 37 40 36 29 25 24 23 22 19 20 24 27 27 29 27 25 25 23 23 25 28 29 29 29 23 20 16 15 17
20 23 25 30 28 28 34 39 43 40 46 40 37 33 38 32 29 30 27 26 26 30 30 29 26 24 26 26 27 27 25 21 13 12 13 14 15 15
17 17 18 20 21 28 32 34 27 29 33 40 33 28 28 31 33 33 31 29 30 31 27 29 29 27 27 25 24 21 15 12 13 14 14 14 12 10
15 14 15 15 17 18 23 30 29 27 29 25 27 27 27 28 26 25 30 31 34 30 27 27 28 27 24 20 18 15 12 13 14 12 11 7 6 10
15 14 12 14 14 15 16 20 20 21 23 25 27 28 26 25 27 26 30 31 30 28 27 26 23 21 17 15 14 14 13 11 10 8 8 8 8 9
16 14 14 14 14 15 16 18 19 20 21 22 23 25 26 29 33 33 31 30 26 23 21 20 18 17 12 14 14 11 8 8 3 5 8 8 8 7
17 16 15 13 14 14 13 14 17 19 23 24 25 25 24 23 23 20 17 15 16 17 14 17 16 17 13 10 13 9 4 2 3 5 5 7 7 6
18 18 18 16 16 17 18 22 23 25 26 23 20 16 15 13 10 8 8 9 10 10 9 9 10 13 14 13 11 8 5 3 5 5 6 7 6 3
21 20 18 17 18 18 18 20 22 22 22 19 16 12 10 8 7 7 6 7 8 9 9 7 8 10 10 8 9 9 5 4 5 6 6 6 3 4
17 16 12 12 12 12 15 15 14 15 15 14 14 13 12 11 11 10 10 11 10 12 12 11 9 7 7 8 6 5 2 3 6 8 8 6 5 7
17 17 17 20 20 19 19 18 17 16 14 14 15 16 16 15 14 13 11 11 11 12 12 11 11 10 8 6 3 1 3 5 7 8 9 7 8 6
22 23 24 23 24 23 22 22 20 18 18 17 17 16 16 15 14 13 11 10 10 12 10 10 9 9 8 5 3 3 6 8 8 8 9 10 7 13
26 27 26 24 24 23 22 21 21 18 16 15 15 15 15 14 12 12 11 9 10 9 8 7 6 5 6 6 5 7 7 8 9 7 8 9 10 10
27 28 27 25 23 21 19 18 17 16 15 15 15 14 13 12 12 11 11 10 9 6 3 3 3 5 5 6 6 6 9 10 9 9 9 7 10 10
23 23 22 20 19 17 15 15 15 15 14 12 12 11 11 10 12 12 11 10 9 7 5 2 1 2 2 4 5 8 8 7 11 12 11 9 7 4
18 19 19 18 17 16 14 13 13 12 12 11 11 10 10 9 9 9 8 8 9 8 6 4 3 2 1 3 6 11 13 9 7 8 8 11 9 7
17 17 19 17 15 14 12 11 11 11 10 9 8 7 6 6 6 6 7 7 7 5 4 5 7 7 5 6 9 12 14 10 11 12 9 12 14 10
Wind_Direction
233 233 228 223 215 208 206 206 197 189 211 206 212 214 220 216 219 226 235 238 241 248 253 254 253 249 247 251 255 259 264 268 273 277 279 280 282 285
231 234 232 229 217 213 209 206 206 202 202 206 212 215 213 223 228 230 234 236 239 247 254 256 254 254 254 256 259 262 266 270 273 276 278 281 283 285
229 231 233 236 223 200 199 201 201 207 214 213 219 218 219 220 222 225 225 232 244 244 250 253 249 251 257 256 257 263 269 274 276 279 283 285 286 291
227 227 228 226 229 220 217 209 195 203 202 223 212 215 219 217 225 223 230 233 238 236 236 243 269 266 258 258 268 271 276 275 279 283 287 289 291 291
225 229 225 224 226 216 215 218 201 200 203 181 200 212 220 209 212 210 221 233 241 264 266 267 265 262 264 268 271 274 272 278 284 286 292 297 296 295
228 228 226 225 228 223 216 210 203 208 220 209 212 219 216 210 220 219 216 245 272 274 272 268 263 267 272 268 273 280 280 279 276 274 283 286 289 283
227 232 237 235 232 232 224 220 213 214 212 213 219 205 192 194 205 233 255 272 268 267 265 262 262 261 269 275 272 278 278 271 272 277 280 279 278 279
224 233 240 242 246 247 241 238 236 237 222 219 218 230 231 235 248 260 265 261 257 257 255 253 247 260 264 259 261 261 262 272 276 272 275 278 279 281
215 218 221 225 233 239 235 228 240 242 234 224 219 220 228 239 250 256 254 257 257 257 249 243 245 248 250 253 257 262 273 282 284 281 279 281 290 307
201 200 202 205 210 216 230 232 226 223 216 221 234 244 250 256 257 250 261 262 252 250 249 238 241 241 244 250 258 266 274 273 273 276 287 306 323 308
178 176 178 182 196 206 212 218 222 229 235 236 238 244 249 250 247 257 261 249 240 237 241 238 237 236 236 240 247 257 263 269 273 288 315 313 302 302
183 185 185 178 183 187 197 208 217 229 235 234 233 229 246 248 256 258 255 253 250 247 242 233 231 220 208 224 232 245 254 256 298 306 289 298 306 311
191 198 200 203 203 204 205 213 221 228 230 234 239 240 243 249 256 258 253 243 243 241 237 221 217 209 207 187 203 222 235 269 277 278 288 305 305 303
201 202 204 208 217 224 224 229 232 230 229 227 228 229 235 237 231 226 224 226 231 236 216 202 212 203 198 181 181 180 186 216 256 270 307 307 306 279
206 206 212 214 220 219 218 226 229 225 221 216 211 207 189 185 181 177 171 163 156 148 147 156 157 181 188 195 176 169 169 247 254 292 307 301 265 237
189 176 181 200 192 193 178 179 181 180 183 179 170 163 159 148 141 133 139 138 143 137 137 135 139 147 154 155 170 183 205 258 298 305 298 283 237 242
153 150 142 139 143 142 141 141 144 147 153 150 148 144 140 138 137 138 138 135 135 131 135 138 140 144 145 155 173 272 306 318 307 305 297 290 232 231
143 130 128 129 128 130 131 130 132 136 136 138 138 137 136 139 141 140 139 138 140 142 149 154 156 161 166 179 218 294 307 309 312 307 301 297 260 224
126 122 124 124 123 124 126 127 127 127 128 131 135 138 141 141 143 140 137 137 134 138 143 144 165 189 203 213 246 285 301 300 308 306 306 306 297 241
117 122 122 123 124 125 127 128 127 129 135 137 140 142 144 146 145 141 143 141 130 140 145 135 156 191 211 228 240 269 295 309 315 321 324 313 305 283
109 109 110 114 116 119 122 126 129 134 135 139 141 145 147 151 149 151 156 156 161 179 203 228 72 310 284 283 290 305 320 296 315 318 322 317 324 281
113 115 118 120 122 126 130 132 134 134 137 148 153 153 156 153 152 159 167 178 189 204 216 239 243 224 284 303 309 306 317 313 274 276 301 287 289 289
119 122 122 122 124 126 131 138 141 137 139 147 148 150 157 159 163 184 199 203 214 225 229 237 245 248 248 260 283 299 314 305 306 304 307 266 247 253